User: anonymous   Login
Location: Hungerford
(51.4167°N, 1.5167°W)
Time: 02:42:52
(UTC+00:00)
Language:

Cosmos 2151 Rocket - Orbit

View from above orbital plane
View from above orbital plane
View from above satellite
View from above satellite

Ground track
Ground track

The orbit data is extracted from the following two-line orbital elements,

1 21423U 91042B   20334.45158041  .00000117  00000-0  12361-4 0  9994
2 21423  82.4958 222.6874 0019119  79.5777 280.7589 14.79806457589107
Epoch (UTC): 29 November 2020 10:50:16
Eccentricity: 0.0019119
inclination: 82.4958°
perigee height: 616 km
apogee height: 643 km
right ascension of ascending node: 222.6874°
argument of perigee: 79.5777°
revolutions per day: 14.79806457
mean anomaly at epoch: 280.7589°
orbit number at epoch: 58910

The dashed part of the orbit path shows where the satellite is in the earth's shadow,  

DLR